Regional Weather Roundup
Issued by NWS

Home | Current Version | Previous Version | Graphics & Text | Print | Product List | Glossary On
Versions: 1 2 3 4 5 6 7 8 9 10 11 12 13 14 15 16 17 18 19 20 21 22 23 24 25 26 27 28 29 30 31 32 33 34 35 36 37 38 39 40 41 42 43 44 45 46 47 48 49
000
ASUS45 KSLC 031610
RWRUT

UTAH REGIONAL WEATHER ROUNDUP
NATIONAL WEATHER SERVICE SALT LAKE CITY UT
1000 AM MDT SUN MAY 03 2015

UTZ001>011-023>025-031700-

NORTHERN UTAH

CITY           SKY/WX    TMP DP  RH WIND       PRES   REMARKS
BRIGHAM CITY   PTSUNNY   63  41  45 S5        29.93R
HILL AFB       PTSUNNY   66  42  40 E5        29.94R
LOGAN          LGT RAIN  60  44  55 N9        29.93R
OGDEN          CLOUDY    68  39  34 E6        29.92R
PROVO AIRPORT  MOSUNNY   63  43  48 CALM      29.96R
SALT LAKE CITY PTSUNNY   71  38  29 SE9       29.90S
VERNAL         MOSUNNY   64  35  34 CALM      30.00S
WENDOVER       MOSUNNY   70  36  28 E10       29.91R
HEBER CITY     SUNNY     59  32  36 CALM      30.00F
WEST JORDAN    SUNNY     70  43  37 S9        29.93S

$$

UTZ012>022-026-027-031700-

SOUTHERN/CENTRAL UTAH

CITY           SKY/WX    TMP DP  RH WIND       PRES   REMARKS
BLANDING       CLOUDY    60  37  42 N13       30.16F
BRYCE CANYON   PTSUNNY   62  27  26 W8        30.13S
CEDAR CITY     CLOUDY    66  31  27 SW16      30.03R
DELTA          MOSUNNY   70  29  21 S9        29.95S
HANKSVILLE     PTSUNNY   72  30  21 SE5       29.98R
MILFORD        SUNNY     69  31  24 S16       29.98R
MOAB/CYNLANDS  MOSUNNY   73  32  22 SE10      29.95S
PRICE          PTSUNNY   67  27  22 SE7       30.01R
ST GEORGE      PTSUNNY   70  39  32 E3        29.93R
KANAB          PTSUNNY   61  34  36 CALM      30.09R

$$

REGIONAL REPORTS     COLORADO/ARIZONA

CITY           SKY/WX    TMP DP  RH WIND       PRES   REMARKS
CRAIG, CO      SUNNY     59  40  49 CALM      30.04S
GRAND JUNCTION MOSUNNY   68  36  30 SE13      29.98S
RIFLE          SUNNY     63  37  38 VRB5      30.03F
MONTROSE       MOSUNNY   69  30  23 CALM      30.06S
CORTEZ         LGT RAIN  56  43  61 NW10      30.12R
PAGE, AZ       PTSUNNY   68  35  29 W3        29.99R
GRAND CANYON   MOSUNNY   62  34  35 SW12G21   30.13S
KINGMAN        MOSUNNY   76  31  19 SE17      29.95R
FLAGSTAFF      MOSUNNY   59  33  37 SW12      30.15R

$$

REGIONAL REPORTS    NEVADA/IDAHO/WYOMING

CITY           SKY/WX    TMP DP  RH WIND       PRES   REMARKS
LAS VEGAS, NV  MOSUNNY   79  28  15 S12       29.82R
ELY            SUNNY     64  21  19 SW9       30.02S
ELKO           MOSUNNY   64  35  34 VRB3      29.94S
POCATELLO, ID  PTSUNNY   62  38  40 N5        29.95R
BURLEY         SUNNY     61  33  35 SW6       29.92S
EVANSTON, WY   PTSUNNY   56  35  45 SE3       30.06R
ROCK SPRINGS   CLOUDY    51  38  60 W16       30.07R
KEMMERER       PTSUNNY   55  34  44 SW6       30.07S

$$


USA.gov is the U.S. government's official web portal to all federal, state and local government web resources and services.